Regional Weather Roundup
Issued by NWS

Home | Current Version | Previous Version | Text Only | Print | Product List | Glossary Off
Versions: 1 2 3 4 5 6 7 8 9 10 11 12 13 14 15 16 17 18 19 20 21 22 23 24 25 26 27 28 29 30 31 32 33 34 35 36 37 38 39 40 41 42 43 44 45 46 47 48 49 50

000
ASUS43 KFSD 200202
RWRSD

WEATHER ROUNDUP FOR SOUTH DAKOTA
NATIONAL WEATHER SERVICE SIOUX FALLS SD
800 PM CST MON FEB 19 2018

NOTE: "FAIR" INDICATES FEW OR NO CLOUDS BELOW 12,000 FEET WITH NO
SIGNIFICANT WEATHER AND/OR OBSTRUCTIONS TO VISIBILITY.


SDZ001>005-009-010-012>017-200300-
NORTHWEST AND NORTH CENTRAL SOUTH DAKOTA

CITY           SKY/WX    TMP DP  RH WIND       PRES   REMARKS
BUFFALO          N/A      1  -4  79 NE7       29.95R WCI -12
FAITH            N/A      1  -1  91 N17       30.01S WCI -19
MOBRIDGE       CLOUDY     5  -1  76 N16G25    30.04F HAZE    WCI -14
$$

SDZ012>016-024>037-041>051-057-063-072>074-200300-
SOUTHWEST AND SOUTH CENTRAL SOUTH DAKOTA

CITY           SKY/WX    TMP DP  RH WIND       PRES   REMARKS
RAPID CTY ARPT LGT SNOW  -1  -5  82 N16       29.95F FOG     WCI -21
PIERRE         LGT SNOW   7   3  84 N17       30.03R FOG     WCI -12
CUSTER         LGT SNOW  -3  -8  79 CALM      29.69R
ELLSWORTH AFB  CLOUDY     0  -4  84 N14       29.93  BLWGSNOWWCI -19
PHILIP         LGT SNOW   4   1  88 N15       30.03F VSB 1   WCI -14
PINE RIDGE     LGT SNOW   1  -4  79 N10       29.90S WCI -15
SPEARFISH      LGT SNOW  -4  -8  84 NE5       29.90S WCI -15
WINNER         LGT SNOW   9   4  80 N16       29.98R WCI  -8
$$

SDZ004>011-016>023-039-040-200300-
NORTHEAST SOUTH DAKOTA

CITY           SKY/WX    TMP DP  RH WIND       PRES   REMARKS
ABERDEEN       LGT SNOW   6   1  80 N21G29    30.05F WCI -14
WATERTOWN      CLOUDY     7   4  87 N20       29.93F FOG     WCI -13
BROOKINGS      LGT SNOW  10   6  84 N12G20    29.92R FOG     WCI  -5
SISSETON         N/A      8   4  83 N20       30.04F WCI -11
$$

SDZ017-020-022-023-036>040-048>070-200300-
SOUTHEAST SOUTH DAKOTA

CITY           SKY/WX    TMP DP  RH WIND       PRES   REMARKS
SIOUX FALLS    FLURRIES  15  11  83 N12       29.90S WCI   2
HURON          LGT SNOW   9   5  84 N15G23    29.99F FOG     WCI  -8
CHAMBERLAIN    LGT SNOW  10   6  83 N12G22    29.98R WCI  -5
MITCHELL       CLOUDY    12   8  84 N17       29.96F WCI  -5
YANKTON        FLURRIES  16  13  88 N13       29.93R WCI   2
$$

ABBREVIATIONS USED IN REMARKS
   TC - TEMPERATURE IN CELSIUS
  WCI - WIND CHILL INDEX
   HX - HEAT INDEX
  VSB - VISIBILITY




USA.gov is the U.S. government's official web portal to all federal, state and local government web resources and services.